Location: Kerentrech
(47.7567°N, 3.3595°W)
Time: 23:17:10
(UTC+00:00)

STARLINK-1162 - Pass Details

Date: 17 February 2020
Orbit: 553 x 555 km, 53.0° (Epoch: 05 April)

Event Time Altitude Azimuth Distance (km) Brightness Sun altitude
Exits shadow 06:12:56 14° 300° (WNW) 1,569 5.4 -11.4°
Maximum altitude 06:16:11 41° 8° (N) 803 4.5 -10.9°
Drops below altitude 10° 06:20:08 10° 80° (E) 1,827 7.6 -10.2°
Sets 06:22:27 0° 87° (E) 2,720 9.2 -9.8°
